PAL538 WADD-RPLL

Flight info

Callsign PAL538
Flight time N/A
Altitude 36000
Route DOBMA M522 ELANG/N0454F350 M522 NUGRO/N0455F370 M522 VJN M646 BUCAL BUCAL1A
Aircraft A321/M-SDE3FGHIRWY/LB1

Departure

Time 2026-05-06 08:28
Airport Denpasar I Gusti Ngurah Rai International Airport (WADD)

Arrival

Time N/A
Airport Ninoy Aquino International Airport (RPLL)
Time Latitude Longitude Altitude Speed Heading
2026-05-06 07:54 -8.74565 115.16273 26 ft 0 kts 358°
2026-05-06 08:13 -8.74569 115.16273 26 ft 2 kts 358°
2026-05-06 08:13 -8.74584 115.16273 26 ft 2 kts 357°
2026-05-06 08:13 -8.74599 115.16273 26 ft 2 kts 358°
2026-05-06 08:13 -8.74614 115.16274 26 ft 2 kts 357°
2026-05-06 08:14 -8.74629 115.16275 25 ft 2 kts 358°
2026-05-06 08:14 -8.74645 115.16276 25 ft 2 kts 357°
2026-05-06 08:14 -8.74657 115.16277 25 ft 0 kts 357°
2026-05-06 08:14 -8.74670 115.16278 25 ft 2 kts 336°
2026-05-06 08:15 -8.74682 115.16286 24 ft 2 kts 313°
2026-05-06 08:15 -8.74690 115.16299 24 ft 2 kts 288°
2026-05-06 08:15 -8.74692 115.16310 24 ft 0 kts 270°
2026-05-06 08:15 -8.74692 115.16318 24 ft 0 kts 267°
2026-05-06 08:20 -8.74692 115.16317 24 ft 0 kts 267°
2026-05-06 08:20 -8.74692 115.16304 24 ft 2 kts 268°
2026-05-06 08:21 -8.74694 115.16275 24 ft 5 kts 268°
2026-05-06 08:21 -8.74695 115.16230 23 ft 7 kts 268°
2026-05-06 08:21 -8.74698 115.16164 22 ft 11 kts 268°
2026-05-06 08:21 -8.74701 115.16074 19 ft 14 kts 269°
2026-05-06 08:22 -8.74707 115.15954 16 ft 19 kts 267°
2026-05-06 08:22 -8.74713 115.15809 13 ft 21 kts 268°
2026-05-06 08:22 -8.74718 115.15657 14 ft 22 kts 268°
2026-05-06 08:22 -8.74724 115.15512 15 ft 15 kts 268°
2026-05-06 08:23 -8.74732 115.15430 16 ft 10 kts 251°
2026-05-06 08:23 -8.74748 115.15404 17 ft 3 kts 224°
2026-05-06 08:23 -8.74766 115.15392 17 ft 2 kts 202°
2026-05-06 08:23 -8.74783 115.15389 18 ft 2 kts 184°
2026-05-06 08:24 -8.74793 115.15389 18 ft 0 kts 179°
2026-05-06 08:25 -8.74792 115.15389 18 ft 0 kts 179°
2026-05-06 08:25 -8.74793 115.15389 18 ft 0 kts 179°
2026-05-06 08:26 -8.74806 115.15390 19 ft 3 kts 177°
2026-05-06 08:26 -8.74842 115.15391 19 ft 6 kts 176°
2026-05-06 08:26 -8.74887 115.15407 19 ft 5 kts 117°
2026-05-06 08:26 -8.74890 115.15427 19 ft 0 kts 92°
2026-05-06 08:27 -8.74888 115.15545 18 ft 50 kts 87°
2026-05-06 08:27 -8.74864 115.16137 19 ft 115 kts 90°
2026-05-06 08:27 -8.74821 115.17117 69 ft 159 kts 90°
2026-05-06 08:27 -8.74808 115.17825 462 ft 157 kts 91°
2026-05-06 08:28 -8.74765 115.18691 830 ft 162 kts 89°
2026-05-06 08:28 -8.74702 115.19855 1362 ft 169 kts 88°
2026-05-06 08:29 -8.74644 115.21088 1673 ft 186 kts 89°
2026-05-06 08:29 -8.74605 115.22199 1951 ft 200 kts 89°
2026-05-06 08:29 -8.74585 115.22751 2085 ft 206 kts 89°
2026-05-06 08:29 -8.74571 115.23132 2173 ft 210 kts 89°
2026-05-06 08:30 -8.74565 115.23319 2212 ft 213 kts 89°
2026-05-06 08:30 -8.74508 115.24880 2484 ft 235 kts 89°
2026-05-06 08:30 -8.74443 115.26583 2975 ft 248 kts 88°
2026-05-06 08:31 -8.74374 115.28332 3693 ft 252 kts 88°
2026-05-06 08:31 -8.74304 115.30104 4415 ft 255 kts 88°
2026-05-06 08:31 -8.74231 115.31898 5131 ft 258 kts 87°
2026-05-06 08:31 -8.74158 115.33705 5839 ft 261 kts 87°
2026-05-06 08:32 -8.74083 115.35534 6552 ft 264 kts 87°
2026-05-06 08:32 -8.74006 115.37376 7233 ft 266 kts 87°
2026-05-06 08:32 -8.73926 115.39269 7879 ft 270 kts 87°
2026-05-06 08:32 -8.73847 115.41164 8486 ft 274 kts 87°
2026-05-06 08:33 -8.73769 115.43074 9070 ft 277 kts 87°
2026-05-06 08:33 -8.73687 115.45047 9649 ft 281 kts 88°
2026-05-06 08:33 -8.73606 115.47018 10184 ft 284 kts 88°
2026-05-06 08:33 -8.73519 115.49033 10717 ft 288 kts 86°
2026-05-06 08:34 -8.73053 115.50993 11212 ft 293 kts 64°
2026-05-06 08:34 -8.70368 115.54122 12201 ft 301 kts 45°
2026-05-06 08:34 -8.68857 115.55603 12668 ft 305 kts 45°
2026-05-06 08:35 -8.67337 115.57102 13129 ft 309 kts 45°
2026-05-06 08:35 -8.65790 115.58639 13577 ft 313 kts 45°
2026-05-06 08:35 -8.64217 115.60212 13812 ft 325 kts 45°
2026-05-06 08:35 -8.62570 115.61861 14027 ft 338 kts 45°
2026-05-06 08:36 -8.60886 115.63550 14235 ft 350 kts 45°
2026-05-06 08:36 -8.59131 115.65309 14455 ft 361 kts 45°
2026-05-06 08:36 -8.57329 115.67113 14814 ft 366 kts 44°
2026-05-06 08:36 -8.55279 115.68638 15208 ft 369 kts 25°
2026-05-06 08:37 -8.52799 115.69273 15655 ft 369 kts
2026-05-06 08:37 -8.50220 115.69082 16118 ft 369 kts 352°
2026-05-06 08:37 -8.47667 115.68733 16540 ft 371 kts 351°
2026-05-06 08:37 -8.45104 115.68394 16955 ft 373 kts 352°
2026-05-06 08:38 -8.42498 115.68177 17377 ft 375 kts 355°
2026-05-06 08:38 -8.39882 115.68012 17784 ft 377 kts 355°
2026-05-06 08:38 -8.37236 115.67853 18177 ft 378 kts 355°
2026-05-06 08:38 -8.34608 115.67693 18558 ft 380 kts 355°
2026-05-06 08:39 -8.31951 115.67534 18923 ft 382 kts 355°
2026-05-06 08:39 -8.29275 115.67373 19278 ft 384 kts 355°
2026-05-06 08:39 -8.26611 115.67213 19620 ft 386 kts 355°
2026-05-06 08:39 -8.23938 115.67052 19962 ft 388 kts 356°
2026-05-06 08:40 -8.21226 115.66888 20284 ft 384 kts 355°
2026-05-06 08:40 -8.18536 115.66724 20500 ft 390 kts 355°
2026-05-06 08:40 -8.18504 115.66723 20503 ft 390 kts 355°
2026-05-06 08:41 -8.15929 115.66567 20788 ft 392 kts 356°
2026-05-06 08:41 -8.13164 115.66401 21114 ft 393 kts 355°
2026-05-06 08:41 -8.10429 115.66235 21432 ft 395 kts 355°
2026-05-06 08:42 -8.07676 115.66069 21738 ft 396 kts 356°
2026-05-06 08:42 -8.04897 115.65900 22037 ft 398 kts 356°
2026-05-06 08:42 -8.02135 115.65733 22353 ft 399 kts 356°
2026-05-06 08:42 -8.00283 115.65622 22543 ft 400 kts 356°
2026-05-06 08:43 -7.99348 115.65566 22637 ft 401 kts 356°
2026-05-06 08:43 -7.91403 115.65089 23374 ft 408 kts 355°
2026-05-06 08:43 -7.88534 115.64917 23642 ft 410 kts 355°
2026-05-06 08:44 -7.85695 115.64746 23913 ft 412 kts 355°
2026-05-06 08:44 -7.82796 115.64571 24185 ft 414 kts 355°
2026-05-06 08:44 -7.79887 115.64396 24447 ft 416 kts 355°
2026-05-06 08:44 -7.76984 115.64220 24708 ft 419 kts 355°
2026-05-06 08:45 -7.74074 115.64044 24960 ft 421 kts 355°
2026-05-06 08:45 -7.71147 115.63867 25206 ft 423 kts 355°
2026-05-06 08:45 -7.68184 115.63689 25467 ft 425 kts 355°
2026-05-06 08:45 -7.65219 115.63510 25717 ft 427 kts 355°
2026-05-06 08:46 -7.62244 115.63331 25958 ft 429 kts 355°
2026-05-06 08:46 -7.59274 115.63102 26179 ft 430 kts 351°
2026-05-06 08:46 -7.56364 115.62382 26379 ft 431 kts 339°
2026-05-06 08:46 -7.53630 115.61074 26611 ft 431 kts 327°
2026-05-06 08:47 -7.51185 115.59365 26865 ft 431 kts 322°
2026-05-06 08:47 -7.48762 115.57547 27080 ft 433 kts 321°
2026-05-06 08:47 -7.46358 115.55724 27287 ft 435 kts 321°
2026-05-06 08:47 -7.43921 115.53882 27519 ft 437 kts 321°
2026-05-06 08:48 -7.41509 115.52065 27744 ft 438 kts 322°
2026-05-06 08:48 -7.39044 115.50217 27969 ft 440 kts 322°
2026-05-06 08:48 -7.36576 115.48370 28191 ft 442 kts 322°
2026-05-06 08:48 -7.34098 115.46517 28417 ft 443 kts 322°
2026-05-06 08:49 -7.31632 115.44676 28647 ft 445 kts 322°
2026-05-06 08:49 -7.29120 115.42802 28867 ft 447 kts 322°
2026-05-06 08:49 -7.26616 115.40933 29097 ft 448 kts 322°
2026-05-06 08:49 -7.24085 115.39044 29338 ft 450 kts 322°
2026-05-06 08:50 -7.21589 115.37183 29558 ft 451 kts 322°
2026-05-06 08:50 -7.19066 115.35299 29773 ft 453 kts 322°
2026-05-06 08:50 -7.16524 115.33403 29974 ft 456 kts 322°
2026-05-06 08:50 -7.13938 115.31476 30145 ft 458 kts 322°
2026-05-06 08:51 -7.11383 115.29571 30346 ft 460 kts 322°
2026-05-06 08:51 -7.08794 115.27640 30574 ft 462 kts 322°
2026-05-06 08:51 -7.06215 115.25719 30872 ft 461 kts 322°
2026-05-06 08:51 -7.03630 115.23792 31213 ft 460 kts 322°
2026-05-06 08:52 -7.01065 115.21880 31550 ft 458 kts 322°
2026-05-06 08:52 -6.98507 115.19973 31883 ft 457 kts 322°
2026-05-06 08:52 -6.95968 115.18079 32211 ft 456 kts 322°
2026-05-06 08:52 -6.93428 115.16187 32527 ft 455 kts 322°
2026-05-06 08:53 -6.90858 115.14271 32892 ft 454 kts 322°
2026-05-06 08:53 -6.88262 115.12508 33277 ft 453 kts 328°
2026-05-06 08:53 -6.85498 115.10986 33706 ft 451 kts 333°
2026-05-06 08:53 -6.82634 115.09738 34152 ft 448 kts 339°
2026-05-06 08:54 -6.79671 115.08762 34568 ft 446 kts 343°
2026-05-06 08:54 -6.76634 115.08064 34952 ft 445 kts 349°
2026-05-06 08:54 -6.73574 115.07651 35304 ft 444 kts 354°
2026-05-06 08:54 -6.70469 115.07439 35570 ft 444 kts 356°
2026-05-06 08:55 -6.67366 115.07266 35797 ft 445 kts 356°
2026-05-06 08:55 -6.64287 115.07102 36015 ft 445 kts 356°
2026-05-06 08:55 -6.61202 115.06935 36220 ft 446 kts 356°
2026-05-06 08:55 -6.58052 115.06763 36438 ft 446 kts 356°
2026-05-06 08:56 -6.54975 115.06592 36659 ft 446 kts 356°
2026-05-06 08:56 -6.51879 115.06420 36810 ft 447 kts 356°
2026-05-06 08:56 -6.48723 115.06244 36817 ft 447 kts 357°
2026-05-06 08:57 -6.42506 115.05894 36816 ft 447 kts 357°
2026-05-06 08:57 -6.36285 115.05541 36819 ft 447 kts 357°
2026-05-06 08:58 -6.30079 115.05193 36814 ft 447 kts 357°
2026-05-06 08:58 -6.23844 115.04843 36810 ft 447 kts 357°
2026-05-06 08:59 -6.17613 115.04491 36811 ft 449 kts 357°
2026-05-06 08:59 -6.11381 115.04139 36806 ft 449 kts 357°
2026-05-06 09:00 -6.05115 115.03785 36808 ft 449 kts 357°
2026-05-06 09:00 -5.98873 115.03432 36807 ft 449 kts 358°
2026-05-06 09:01 -5.92596 115.03080 36807 ft 450 kts 358°
2026-05-06 09:01 -5.86340 115.02728 36805 ft 451 kts 357°
2026-05-06 09:02 -5.80049 115.02374 36802 ft 451 kts 357°
2026-05-06 09:02 -5.73768 115.02019 36803 ft 451 kts 357°
2026-05-06 09:03 -5.67477 115.01663 36801 ft 452 kts 358°
2026-05-06 09:03 -5.61154 115.01307 36805 ft 454 kts 358°
2026-05-06 09:04 -5.54825 115.00951 36805 ft 456 kts 358°
2026-05-06 09:04 -5.48467 115.00595 36804 ft 458 kts 357°
2026-05-06 09:05 -5.42106 115.00238 36803 ft 459 kts 357°
2026-05-06 09:05 -5.35664 114.99875 36804 ft 460 kts 357°
2026-05-06 09:06 -5.29271 114.99516 36802 ft 462 kts 357°
2026-05-06 09:06 -5.22828 114.99152 36805 ft 461 kts 357°
2026-05-06 09:07 -5.16402 114.98791 36803 ft 462 kts 356°
2026-05-06 09:07 -5.09953 114.98428 36804 ft 462 kts 356°
2026-05-06 09:08 -5.03547 114.98066 36805 ft 461 kts 357°
2026-05-06 09:08 -4.97115 114.97704 36807 ft 460 kts 357°
2026-05-06 09:09 -4.90708 114.97345 36806 ft 460 kts 357°
2026-05-06 09:09 -4.84416 114.96992 36805 ft 460 kts 357°
2026-05-06 09:10 -4.78018 114.96632 36798 ft 460 kts 357°
2026-05-06 09:10 -4.71609 114.96272 36788 ft 460 kts 357°
2026-05-06 09:11 -4.65190 114.95910 36784 ft 461 kts 357°
2026-05-06 09:11 -4.58744 114.95548 36783 ft 461 kts 357°
2026-05-06 09:12 -4.52355 114.95188 36785 ft 461 kts 357°
2026-05-06 09:12 -4.45933 114.94828 36785 ft 460 kts 357°
2026-05-06 09:13 -4.39516 114.94467 36788 ft 460 kts 357°
2026-05-06 09:13 -4.33119 114.94115 36790 ft 460 kts 358°
2026-05-06 09:14 -4.26685 114.93901 36791 ft 460 kts 359°
2026-05-06 09:14 -4.20298 114.93716 36788 ft 460 kts 359°
2026-05-06 09:15 -4.13853 114.93522 36793 ft 460 kts 359°
2026-05-06 09:15 -4.07461 114.93323 36802 ft 460 kts 359°
2026-05-06 09:16 -4.01062 114.93123 36804 ft 459 kts 359°
2026-05-06 09:16 -3.94649 114.92921 36804 ft 458 kts 359°
2026-05-06 09:17 -3.88276 114.92720 36803 ft 459 kts 359°
2026-05-06 09:17 -3.81863 114.92517 36808 ft 460 kts 359°
2026-05-06 09:18 -3.75457 114.92314 36807 ft 460 kts 359°
2026-05-06 09:18 -3.69046 114.92112 36806 ft 461 kts 359°
2026-05-06 09:19 -3.62633 114.91910 36799 ft 460 kts 359°
2026-05-06 09:19 -3.56210 114.91708 36805 ft 459 kts 359°
2026-05-06 09:20 -3.49821 114.91506 36801 ft 459 kts 359°
2026-05-06 09:20 -3.43420 114.91305 36800 ft 460 kts 359°
2026-05-06 09:21 -3.37015 114.91103 36799 ft 460 kts 359°
2026-05-06 09:21 -3.30597 114.90900 36794 ft 460 kts 359°
2026-05-06 09:22 -3.24176 114.90698 36792 ft 459 kts 359°
2026-05-06 09:22 -3.17774 114.90496 36791 ft 458 kts 359°
2026-05-06 09:23 -3.11403 114.90296 36789 ft 458 kts 359°
2026-05-06 09:23 -3.04989 114.90095 36790 ft 458 kts 359°
2026-05-06 09:24 -2.98623 114.89893 36782 ft 458 kts 359°
2026-05-06 09:24 -2.92196 114.89690 36772 ft 458 kts 360°
2026-05-06 09:25 -2.85825 114.89490 36768 ft 458 kts 360°
2026-05-06 09:25 -2.79441 114.89290 36766 ft 458 kts 360°
2026-05-06 09:26 -2.73021 114.89088 36765 ft 459 kts 360°
2026-05-06 09:26 -2.66655 114.88889 36765 ft 459 kts 360°
2026-05-06 09:27 -2.60248 114.88686 36765 ft 459 kts 360°
2026-05-06 09:27 -2.53856 114.88485 36764 ft 458 kts 360°
2026-05-06 09:28 -2.47474 114.88284 36765 ft 458 kts 360°
2026-05-06 09:28 -2.41083 114.88084 36765 ft 458 kts
2026-05-06 09:29 -2.34690 114.87882 36766 ft 458 kts
2026-05-06 09:29 -2.28319 114.87682 36768 ft 458 kts
2026-05-06 09:30 -2.21924 114.87480 36775 ft 457 kts
2026-05-06 09:30 -2.15569 114.87281 36783 ft 457 kts
2026-05-06 09:31 -2.09192 114.87080 36789 ft 456 kts
2026-05-06 09:31 -2.02853 114.86880 36790 ft 457 kts
2026-05-06 09:32 -1.96472 114.86681 36789 ft 457 kts
2026-05-06 09:32 -1.90112 114.86481 36790 ft 458 kts
2026-05-06 09:33 -1.83692 114.86279 36790 ft 457 kts
2026-05-06 09:33 -1.77345 114.86079 36790 ft 457 kts
2026-05-06 09:34 -1.70973 114.85879 36790 ft 457 kts
2026-05-06 09:34 -1.64552 114.85677 36790 ft 458 kts
2026-05-06 09:35 -1.58198 114.85477 36790 ft 458 kts
2026-05-06 09:35 -1.51790 114.85275 36791 ft 459 kts
2026-05-06 09:36 -1.45387 114.85074 36791 ft 459 kts
2026-05-06 09:36 -1.39012 114.84875 36790 ft 459 kts
2026-05-06 09:37 -1.32605 114.84673 36788 ft 458 kts
2026-05-06 09:37 -1.26246 114.84473 36786 ft 458 kts
2026-05-06 09:38 -1.19833 114.84271 36785 ft 459 kts 360°
2026-05-06 09:38 -1.13458 114.84069 36785 ft 460 kts
2026-05-06 09:39 -1.07037 114.83866 36788 ft 460 kts 360°
2026-05-06 09:39 -1.00614 114.83664 36793 ft 460 kts
2026-05-06 09:40 -0.94188 114.83662 36797 ft 458 kts
2026-05-06 09:40 -0.84750 114.84895 36794 ft 455 kts 12°
2026-05-06 09:41 -0.78526 114.86082 36794 ft 455 kts 13°
2026-05-06 09:41 -0.72297 114.87271 36794 ft 454 kts 12°
2026-05-06 09:42 -0.66086 114.88452 36798 ft 454 kts 13°
2026-05-06 09:42 -0.59868 114.89634 36796 ft 453 kts 13°
2026-05-06 09:43 -0.53656 114.90813 36795 ft 453 kts 12°
2026-05-06 09:43 -0.47443 114.91993 36798 ft 452 kts 12°
2026-05-06 09:44 -0.41229 114.93173 36808 ft 452 kts 12°
2026-05-06 09:44 -0.35033 114.94348 36821 ft 452 kts 12°
2026-05-06 09:45 -0.28870 114.95518 36831 ft 451 kts 12°
2026-05-06 09:45 -0.26811 114.95909 36834 ft 451 kts 12°